Content
SEND FEEDBACK

Daily
Averages
Monthly
Summary
Finland

KEMI, FINLAND


Home > Europe > Finland
Elevation: 49 feet     Latitude: 65 47N     Longitude: 024 35E

WEATHER
 
SELECT A DAY
Number of Records: 216,487;   Date Range: 10/1/98 - 7/27/14
 
SHARE

PRINT THIS DATA

[ ← Previous Day ]
WEATHER ALMANAC - JANUARY 31, 2013
[ Next Day → ]
[ °C ]   °F
Weather ElementAverageHighLow
Temperature31.8 °F33.8 °F (2:50 pm)30.2 °F (12:50 am)
Dewpoint31.5 °F33.8 °F (2:50 pm)28.4 °F (12:50 am)
Humidity99 %100 % (1:50 am)93 % (12:50 am)
Barometer28.77 in28.80 in (12:50 pm)28.74 in (12:50 am)
Wind Speed13.4 mph19.6 mph (4:20 am)
Wind Gust31.1 mph (3:50 am)
Weather ElementAverage
Visibility1.9 mi
Wind DirectionSSE (148.3 °)

Weather ElementTotal
Precipitation---
Heating Degree Days33 (Base 65)
Averaged from 47 records on January 31, 2013
WEATHER CONDITIONS BREAKOUT
WIND DIRECTION BREAKOUT
WEATHER BY HOUR - JANUARY 31, 2013
[ °C ]   °F
Local TimeTemperatureDewpointHumidityBarometerVisibilityWind DirectionWind SpeedGust SpeedPrecipitationEventsConditions
12:50 AM30.2 °F28.4 °F93 %28.74 in1.2 miSE (140°)17.3 mphSnowSnow
1:20 AM30.2 °F28.4 °F93 %28.74 inSE (130°)18.4 mphSnowLight Snow
1:50 AM30.2 °F30.2 °F100 %28.74 in1.2 miSE (130°)17.3 mph28.8 mphSnowSnow
2:20 AM30.2 °F30.2 °F100 %28.74 in0.5 miSE (140°)17.3 mphSnowSnow
2:50 AM30.2 °F30.2 °F100 %28.74 in0.7 miSE (140°)18.4 mphSnowSnow
3:20 AM30.2 °F30.2 °F100 %28.74 in3.1 miSE (140°)17.3 mph28.8 mphSnowLight Snow
3:50 AM30.2 °F30.2 °F100 %28.74 in1.3 miSE (140°)18.4 mph31.1 mphSnowLight Snow
4:20 AM30.2 °F30.2 °F100 %28.74 in1.9 miSE (140°)19.6 mphSnowLight Snow
4:50 AM32.0 °F30.2 °F93 %28.74 inSE (140°)17.3 mphSnowLight Snow
5:20 AM32.0 °F30.2 °F93 %28.74 in1.0 miSE (140°)16.1 mphSnowLight Snow
5:50 AM30.2 °F30.2 °F100 %28.74 in0.3 miSE (130°)16.1 mphSnowSnow
6:20 AM32.0 °F30.2 °F93 %28.74 in1.1 miSE (140°)16.1 mphSnowSnow
6:50 AM32.0 °F30.2 °F93 %28.74 in2.2 miSE (140°)15.0 mphSnowLight Snow
7:20 AM32.0 °F30.2 °F93 %28.74 in0.9 miSE (140°)15.0 mphSnowSnow
7:50 AM32.0 °F32.0 °F100 %28.74 in1.2 miSE (140°)15.0 mphSnowSnow
8:20 AM32.0 °F32.0 °F100 %28.74 inSSE (150°)13.8 mphSnowLight Snow
8:50 AM32.0 °F32.0 °F100 %28.74 in1.1 miSSE (160°)11.5 mphSnowSnow
9:20 AM32.0 °F32.0 °F100 %28.74 in1.2 miSSE (150°)13.8 mphSnowSnow
9:50 AM32.0 °F32.0 °F100 %28.74 in1.1 miSSE (150°)15.0 mphRain-SnowSnow
10:20 AM32.0 °F32.0 °F100 %28.77 in1.4 miSSE (150°)13.8 mphRain-SnowLight Snow
10:50 AM32.0 °F32.0 °F100 %28.77 in2.5 miSSE (160°)13.8 mphRainRain
11:20 AM32.0 °F32.0 °F100 %28.77 in2.5 miSSE (160°)16.1 mphRain-SnowLight Rain
11:50 AM32.0 °F32.0 °F100 %28.77 in1.9 miSSE (160°)15.0 mphRain-SnowLight Rain
12:20 PM32.0 °F32.0 °F100 %28.77 in1.2 miSSE (160°)13.8 mphRainLight Rain
12:50 PM32.0 °F32.0 °F100 %28.80 in1.4 miSSE (160°)13.8 mphSnowLight Snow Grains
1:20 PM32.0 °F32.0 °F100 %28.80 in1.6 miSSE (160°)12.7 mphRain-SnowLight Rain
1:50 PM32.0 °F32.0 °F100 %28.80 in1.7 miSSE (160°)12.7 mphRain-SnowLight Rain
2:20 PM32.0 °F32.0 °F100 %28.80 in1.6 miSSE (150°)12.7 mphRain-SnowLight Rain
2:50 PM33.8 °F33.8 °F100 %28.80 in6.2 miSSE (150°)10.4 mphOvercast
3:20 PM33.8 °F33.8 °F100 %28.80 in6.2 miSSE (150°)9.2 mphFogPatches of Fog
3:50 PM33.8 °F33.8 °F100 %28.80 inSE (140°)9.2 mphRainLight Rain
4:20 PM32.0 °F32.0 °F100 %28.80 in1.2 miSE (140°)8.1 mphRain-SnowSnow
4:50 PM32.0 °F32.0 °F100 %28.80 in1.2 miSE (140°)9.2 mphRain-SnowSnow
5:20 PM32.0 °F32.0 °F100 %28.77 in2.2 miSE (140°)9.2 mphRain-SnowSnow
5:50 PM32.0 °F32.0 °F100 %28.77 in1.9 miSE (140°)10.4 mphRainRain
6:20 PM32.0 °F32.0 °F100 %28.77 in1.6 miSSE (150°)10.4 mphRain-SnowSnow
6:50 PM32.0 °F32.0 °F100 %28.77 in3.1 miSSE (150°)9.2 mphRainLight Rain
7:20 PM32.0 °F32.0 °F100 %28.77 in1.3 miSSE (150°)9.2 mphRainLight Rain
7:50 PM32.0 °F32.0 °F100 %28.77 in1.6 miSSE (150°)9.2 mphRainLight Rain
8:20 PM32.0 °F32.0 °F100 %28.77 in1.3 miSSE (160°)10.4 mphRainLight Rain
8:50 PM32.0 °F32.0 °F100 %28.77 inSSE (160°)9.2 mphRain-SnowLight Rain
9:20 PM32.0 °F32.0 °F100 %28.77 in2.5 miSSE (160°)10.4 mphRain-SnowLight Rain
9:50 PM32.0 °F32.0 °F100 %28.77 in2.5 miSSE (160°)10.4 mphRain-SnowLight Rain
10:20 PM32.0 °F32.0 °F100 %28.77 in3.1 miSSE (160°)12.7 mphSnowLight Snow Showers
10:50 PM32.0 °F32.0 °F100 %28.80 in3.1 miSSE (160°)13.8 mphRain-SnowLight Rain Showers
11:20 PM32.0 °F32.0 °F100 %28.80 in3.7 miSSE (150°)12.7 mphSnowLight Snow Showers
11:50 PM32.0 °F32.0 °F100 %28.80 in2.8 miSSE (160°)13.8 mphSnowLight Snow Showers
Hourly data recorded from EFKE, located miles away from Kemi, Finland







STORIES FROM OUR PARTNERS